Regional Weather Roundup
Issued by NWS

Home | Current Version | Previous Version | Graphics & Text | Print | Product List | Glossary On
Versions: 1 2 3 4 5 6 7 8 9 10 11 12 13 14 15 16 17 18 19 20 21 22 23 24 25 26 27 28 29 30 31 32 33 34 35 36 37 38 39 40 41 42 43 44 45 46 47 48 49 50
000
ASUS43 KFSD 201402
RWRSD

WEATHER ROUNDUP FOR SOUTH DAKOTA
NATIONAL WEATHER SERVICE SIOUX FALLS SD
900 AM CDT FRI APR 20 2018

NOTE: "FAIR" INDICATES FEW OR NO CLOUDS BELOW 12,000 FEET WITH NO
SIGNIFICANT WEATHER AND/OR OBSTRUCTIONS TO VISIBILITY.


SDZ001>005-009-010-012>017-201500-
NORTHWEST AND NORTH CENTRAL SOUTH DAKOTA

CITY           SKY/WX    TMP DP  RH WIND       PRES   REMARKS
BUFFALO          N/A     41  28  60 SE12      30.10R
FAITH            N/A     36  31  82 SE16      30.21S
MOBRIDGE       CLOUDY    40  30  67 SE10      30.29S
$$

SDZ012>016-024>037-041>051-057-063-072>074-201500-
SOUTHWEST AND SOUTH CENTRAL SOUTH DAKOTA

CITY           SKY/WX    TMP DP  RH WIND       PRES   REMARKS
RAPID CTY ARPT CLOUDY    43  31  62 SE14      30.15R
PIERRE         CLOUDY    36  32  85 SE13      30.29S
CUSTER         PTSUNNY   37  24  59 VRB6      30.11R
ELLSWORTH AFB  CLOUDY    43  31  63 S14       30.14S
PHILIP         CLOUDY    36  31  82 E15       30.23S
PINE RIDGE     CLOUDY    46  29  51 SE13G18   30.13R
SPEARFISH      FAIR      43  28  56 SE16      30.11S
WINNER         FAIR      40  29  64 SE17      30.29R
$$

SDZ004>011-016>023-039-040-201500-
NORTHEAST SOUTH DAKOTA

CITY           SKY/WX    TMP DP  RH WIND       PRES   REMARKS
ABERDEEN       PTSUNNY   38  31  76 S9        30.41R
WATERTOWN      CLOUDY    35  26  69 S9        30.41R WCI  28
BROOKINGS      CLOUDY    35  25  66 SE9       30.43R WCI  28
SISSETON         N/A     36  29  75 E3        30.42R
$$

SDZ017-020-022-023-036>040-048>070-201500-
SOUTHEAST SOUTH DAKOTA

CITY           SKY/WX    TMP DP  RH WIND       PRES   REMARKS
SIOUX FALLS    CLOUDY    36  24  62 SE9       30.43R
HURON          CLOUDY    34  26  72 SE9       30.40R WCI  27
CHAMBERLAIN    CLOUDY    36  34  92 SE10      30.34R
MITCHELL       CLOUDY    35  28  75 SE13      30.40S WCI  26
YANKTON        CLOUDY    34  29  82 E7        30.41R WCI  28
$$

ABBREVIATIONS USED IN REMARKS
   TC - TEMPERATURE IN CELSIUS
  WCI - WIND CHILL INDEX
   HX - HEAT INDEX
  VSB - VISIBILITY





USA.gov is the U.S. government's official web portal to all federal, state and local government web resources and services.